Wind_Speed
57 57 58 58 59 60 59 58 59 60 60 58 57 56 56 55 53 51 48 48 47 48 49 48 49 47 39 37 37 38 40 38 34 31 30 30 30 29 28 25 23 20 20 22 22 21 21 21 22 23 22 23 23 24 25 24 25 25 26 25 25 25 22 20 20 21 22 22 22 21 21 21 21 20 19 18 19 19 19 20 19 19 21 21 21 22
64 61 58 55 56 59 60 60 60 61 62 61 58 57 57 56 54 52 50 50 50 51 51 51 52 51 43 39 40 41 42 40 36 32 29 30 31 32 29 27 26 24 23 23 22 22 22 21 22 23 22 23 24 26 26 26 26 27 26 26 28 28 25 23 23 23 23 23 24 23 22 21 21 20 20 19 20 20 20 20 21 22 23 23 23 24
63 63 59 55 55 57 59 61 62 62 63 63 61 60 58 58 56 55 54 52 51 53 54 53 54 54 48 42 42 43 43 41 37 34 32 32 32 31 29 29 29 28 26 25 25 25 26 24 23 22 22 24 25 26 26 27 28 28 27 27 29 30 28 27 26 25 24 25 25 23 23 22 21 21 20 21 21 21 22 23 23 24 24 24 24 24
58 58 57 57 56 55 56 58 61 62 64 64 63 61 60 59 58 57 56 55 54 54 55 55 56 55 51 45 42 42 43 42 39 36 35 34 33 30 29 30 30 29 28 28 28 29 30 29 27 24 24 25 25 25 26 27 29 29 29 28 29 30 30 29 28 26 26 26 25 24 24 23 22 22 22 22 22 23 25 25 26 26 25 24 24 24
58 55 56 57 57 57 55 56 58 60 62 63 63 62 60 58 58 57 57 57 56 56 56 57 58 57 52 47 43 41 44 44 41 39 37 35 33 31 30 30 29 29 29 30 30 31 32 31 30 28 26 25 25 25 26 27 28 29 29 30 29 29 29 29 29 28 27 27 26 25 24 23 23 23 23 23 24 26 27 27 26 25 24 24 24 24
62 60 57 57 57 57 57 57 58 57 58 59 60 59 59 58 58 59 60 59 59 58 58 58 60 60 54 49 46 43 45 45 43 42 39 36 35 33 31 30 29 30 30 32 33 34 35 33 32 31 29 27 26 26 27 28 28 28 29 31 31 29 28 29 29 29 28 27 26 26 25 24 24 23 23 24 26 28 27 27 26 25 24 24 25 26
61 62 60 58 56 56 57 58 58 56 57 58 56 54 55 56 57 60 61 62 62 61 60 59 61 63 58 52 48 45 45 46 45 43 40 39 38 36 33 31 30 31 30 32 34 35 36 35 33 32 31 30 28 28 29 29 28 28 29 31 31 30 29 28 28 28 27 26 26 26 26 25 25 23 23 26 27 28 28 27 26 26 26 26 26 27
54 60 63 61 59 57 58 58 56 55 56 56 54 52 53 54 56 60 61 62 62 62 62 61 61 65 63 55 49 47 47 47 47 45 43 41 40 38 36 34 33 32 31 32 33 34 36 35 33 31 31 31 30 30 30 29 29 30 31 32 32 32 30 29 29 28 26 26 26 26 26 25 25 24 25 27 27 27 28 27 27 28 28 28 28 28
52 57 61 61 62 60 58 59 59 58 59 58 56 54 53 54 57 59 61 61 61 62 64 63 62 67 68 60 52 49 48 48 48 46 45 44 43 41 38 36 35 34 34 33 33 33 34 34 33 30 30 30 30 31 32 32 32 32 32 32 33 33 33 32 31 30 28 27 27 27 26 25 24 25 26 27 28 27 27 27 28 29 29 29 29 29
62 60 59 58 59 58 56 57 60 60 60 61 60 57 54 56 58 59 60 60 61 64 64 61 61 67 70 65 58 54 51 48 48 47 46 45 45 43 39 37 35 35 36 36 35 34 33 33 32 31 29 28 28 30 32 34 34 33 34 34 34 34 35 35 35 34 32 31 30 28 26 25 25 26 27 28 28 28 28 28 28 29 30 30 30 30
73 68 63 57 53 54 51 51 58 61 57 54 56 59 58 58 58 58 61 60 61 65 63 59 60 65 71 70 63 59 54 50 49 48 47 46 45 45 43 40 38 37 37 37 36 35 33 31 31 31 29 27 28 30 31 32 33 35 36 36 35 35 36 37 38 37 36 35 33 31 29 27 27 28 29 29 29 29 30 29 30 30 31 31 31 31
81 76 67 57 52 51 47 43 49 56 56 50 49 53 56 58 59 59 60 59 62 66 62 59 61 65 71 72 65 60 57 52 51 49 47 46 46 46 46 44 43 42 39 37 36 35 34 32 30 30 30 29 29 30 30 31 32 34 36 37 37 37 37 38 39 39 39 38 36 34 32 31 31 31 32 31 31 32 33 33 33 33 32 32 32 32
84 81 72 63 57 51 46 41 39 46 54 52 48 49 52 55 57 59 61 60 63 65 61 59 61 64 69 71 66 62 59 54 51 49 47 46 47 47 48 47 45 45 43 40 37 36 35 34 33 32 31 30 30 30 30 31 32 33 34 36 37 37 38 39 40 40 40 40 39 38 37 35 35 35 35 34 34 35 36 36 37 36 34 34 34 34
82 83 79 74 67 56 48 42 37 39 48 52 51 51 51 52 54 59 61 62 63 62 59 59 62 63 65 68 66 63 61 58 54 52 49 46 45 45 47 48 46 45 43 41 40 38 36 36 35 34 32 31 31 31 31 31 31 32 33 34 35 35 37 39 40 41 41 42 42 42 41 41 40 39 38 38 38 38 39 39 39 39 37 36 35 35
81 80 79 78 74 66 57 49 42 39 41 43 45 45 46 47 48 51 53 55 57 57 58 60 63 64 64 66 64 62 63 63 60 57 53 48 42 41 43 46 46 46 44 43 42 40 38 37 36 36 35 34 33 33 32 31 30 31 32 33 33 33 34 36 38 40 41 42 43 44 44 44 44 43 42 41 40 40 40 41 41 41 40 38 37 37
79 79 77 76 76 75 70 64 58 53 48 44 43 45 44 41 41 44 46 48 50 52 57 61 63 63 63 64 64 64 66 67 63 59 56 51 46 42 42 43 44 45 45 45 44 42 40 39 37 38 38 37 36 35 34 33 31 31 32 32 32 31 32 34 36 37 38 40 42 43 44 45 46 45 44 42 41 41 41 42 42 42 42 40 40 40
75 77 76 74 76 78 76 73 71 70 64 57 54 51 44 41 43 43 44 45 45 47 53 57 59 59 59 61 62 63 66 67 64 59 55 52 51 48 46 43 42 42 42 43 44 43 41 41 40 39 40 40 38 37 36 35 34 32 32 33 32 31 32 33 34 35 36 37 38 40 42 43 44 44 43 42 42 42 43 43 42 41 42 41 41 42
71 72 73 72 72 74 74 71 69 72 72 69 67 59 50 51 54 50 48 49 48 49 51 54 56 55 54 57 57 57 61 63 63 61 56 53 53 52 49 45 42 41 41 42 43 43 42 41 41 41 41 41 39 38 36 36 36 35 34 34 33 33 33 34 34 35 35 36 36 37 38 39 40 40 40 40 40 41 42 41 40 40 41 41 42 43
67 68 71 72 70 71 71 68 66 66 67 69 71 68 64 64 62 58 57 54 51 52 50 50 52 51 50 53 52 51 52 55 57 60 58 54 52 52 51 47 45 43 43 43 43 43 43 41 41 41 41 41 40 38 36 35 35 36 36 36 35 35 35 34 35 35 36 36 36 37 37 38 38 38 37 37 37 38 38 38 37 38 39 39 40 41
64 65 68 70 69 68 67 66 66 63 59 62 67 70 71 70 68 67 65 61 58 59 56 51 50 50 48 49 51 49 49 50 53 54 54 52 49 50 51 49 47 45 44 46 46 46 44 42 42 42 42 42 41 39 37 34 34 35 36 37 37 37 37 36 35 35 36 36 36 37 37 37 37 36 36 36 36 36 36 36 37 37 38 39 39 40
64 64 65 67 68 67 66 65 67 63 55 54 58 63 64 64 67 68 66 65 63 63 64 61 58 51 40 38 45 47 47 46 46 48 49 46 45 48 51 50 46 44 44 46 48 49 49 47 45 44 43 42 40 39 37 35 34 35 36 37 38 39 38 37 37 36 36 37 37 37 38 38 37 36 36 36 36 37 37 38 39 39 39 40 40 40
66 66 66 67 68 68 67 67 67 63 56 51 51 57 57 54 55 57 59 62 60 61 64 67 68 56 36 29 37 42 45 45 41 44 47 44 41 42 48 50 47 41 40 44 47 49 51 51 50 48 46 43 42 41 41 39 38 39 39 38 39 39 39 39 39 39 38 38 38 38 39 39 38 38 38 38 38 39 39 40 40 40 40 40 40 40
64 65 66 68 69 68 67 66 64 61 58 55 53 54 55 54 53 54 58 62 62 64 62 62 70 61 40 33 36 35 37 41 38 39 41 41 37 34 39 46 45 37 33 38 45 49 51 53 53 53 51 50 49 49 48 46 44 44 43 43 41 41 41 40 40 40 40 40 40 40 41 40 40 40 40 40 40 40 41 41 41 41 41 41 40 40
62 64 64 66 67 68 67 66 63 57 53 54 54 52 52 53 52 51 53 55 57 62 60 58 68 63 45 39 41 38 35 37 39 40 38 36 32 29 33 39 40 36 31 33 39 44 49 52 53 54 55 55 56 56 56 54 50 47 46 46 45 43 43 42 41 41 41 41 42 42 42 42 42 42 42 42 42 42 42 42 42 42 42 42 41 40
60 62 64 65 67 69 70 69 68 63 59 60 59 56 53 51 48 45 45 47 50 54 53 52 61 63 54 48 48 49 47 43 43 46 43 38 35 33 36 38 39 38 35 34 35 38 43 48 50 52 53 55 57 57 57 56 54 51 49 48 48 46 45 43 42 42 42 42 42 42 43 43 43 43 43 43 43 43 43 43 43 43 43 43 42 42
57 58 59 62 65 68 70 71 70 68 67 68 68 66 63 59 57 54 52 54 56 55 54 54 54 54 57 58 54 54 58 54 49 49 47 44 43 43 42 42 41 40 37 35 35 35 37 40 45 49 50 51 52 53 53 53 53 53 52 51 51 50 49 46 44 43 42 43 43 43 43 44 44 44 44 44 44 44 44 43 44 44 44 44 44 44
56 58 58 59 62 64 66 66 65 66 67 67 66 65 64 62 60 59 58 59 58 58 60 62 58 53 56 61 60 59 62 61 58 57 56 55 55 54 51 48 45 42 39 37 36 36 35 36 40 45 47 48 48 48 49 50 50 51 52 52 52 53 52 51 49 47 45 43 44 44 45 45 45 45 45 45 45 45 44 44 45 46 46 46 46 46
57 59 59 60 62 63 63 63 63 66 67 67 67 67 65 64 62 62 64 61 56 59 61 58 56 55 54 59 65 67 63 60 60 60 60 60 61 60 59 56 51 47 44 41 40 39 38 38 39 42 44 45 45 46 47 48 49 50 51 51 51 52 52 52 52 51 49 47 45 45 46 46 46 46 46 46 46 46 46 46 47 47 48 48 48 48
59 61 60 61 63 63 63 64 64 66 68 68 69 69 68 68 67 68 69 65 61 64 65 59 56 57 53 54 62 67 64 60 61 63 61 60 60 59 59 58 55 53 50 46 45 45 44 44 43 42 44 45 45 45 45 46 48 49 49 49 49 50 50 50 50 50 50 49 48 47 47 47 47 47 48 48 48 48 48 48 49 49 50 50 50 50
56 58 58 60 62 63 63 65 65 66 68 69 70 71 70 71 71 70 70 70 69 70 70 66 66 66 59 54 56 58 59 59 59 61 61 59 59 58 56 56 55 56 56 52 49 50 50 50 48 45 45 46 46 46 47 47 48 49 49 49 49 49 49 48 48 48 48 48 49 48 48 47 47 48 48 49 50 50 50 51 51 51 51 52 52 52
52 53 53 56 59 61 61 62 63 65 66 68 69 70 71 72 73 73 73 73 74 75 74 72 72 72 66 58 54 52 55 56 55 56 57 58 60 59 57 58 59 59 58 57 55 54 54 55 53 49 47 48 48 48 49 50 50 50 50 50 50 49 48 47 46 46 46 47 48 48 49 49 49 49 49 50 51 52 52 53 53 53 54 54 55 55
51 50 49 51 56 57 54 55 58 60 62 65 67 66 67 70 72 74 74 74 75 76 77 76 77 77 69 62 57 53 53 55 52 52 54 55 60 62 60 62 66 64 61 60 60 59 59 58 56 53 50 49 50 51 51 52 54 53 52 52 52 51 49 48 47 46 46 46 47 48 49 50 51 51 52 52 53 54 54 55 55 56 57 57 58 58
50 50 49 51 55 53 50 50 53 56 61 65 64 62 64 67 70 72 73 74 75 75 77 78 79 77 71 67 65 59 55 53 51 53 55 53 56 62 62 62 65 66 63 61 59 59 59 59 58 58 56 53 52 53 54 55 55 55 55 56 55 53 52 51 50 49 48 48 48 49 50 51 52 53 54 55 55 56 56 57 58 58 59 60 60 60
49 50 50 53 56 54 50 50 53 60 66 66 61 60 63 65 66 68 70 71 71 72 74 76 76 75 73 71 70 66 60 56 53 57 60 56 55 59 63 63 65 65 65 63 60 57 58 58 59 60 61 59 56 56 58 58 57 56 56 57 56 54 53 53 52 51 51 50 51 51 52 53 53 55 56 57 57 58 59 59 60 60 61 61 62 62
49 50 51 53 56 55 51 52 60 66 65 60 58 60 63 64 64 66 68 69 70 71 72 73 73 72 71 70 69 68 66 61 58 61 63 60 57 57 61 65 66 66 66 66 65 62 58 57 57 59 60 60 59 59 61 62 60 58 58 57 55 54 52 52 51 51 51 51 52 53 54 54 55 56 58 59 60 61 62 62 63 63 63 63 64 64
50 51 53 55 57 56 55 59 66 66 60 58 60 60 61 63 63 66 69 69 68 69 70 70 70 68 66 66 65 65 65 61 61 64 63 61 61 61 63 67 69 70 70 69 69 68 63 58 56 57 58 59 60 60 61 62 63 63 61 59 57 55 53 52 51 50 51 51 52 54 55 56 58 59 60 61 63 64 65 65 66 66 65 66 66 66
53 54 56 57 58 58 59 62 65 65 64 63 61 58 58 60 61 63 68 68 65 65 66 66 67 66 65 65 64 63 62 62 65 65 60 60 63 66 68 70 72 75 75 71 69 70 68 62 58 58 59 60 60 61 62 64 65 66 65 64 61 59 57 55 53 52 53 53 54 56 56 57 59 61 62 64 65 66 68 68 68 68 68 68 69 69
56 57 57 58 59 58 61 64 65 68 69 62 54 51 52 55 55 56 61 64 61 61 63 63 64 64 63 64 63 62 61 62 67 65 60 61 65 68 70 73 72 74 74 72 70 70 70 66 63 61 61 61 61 61 61 64 66 67 67 66 65 64 62 59 57 57 57 57 58 58 58 58 59 61 63 65 67 68 69 70 70 71 71 71 71 70
58 59 57 59 60 60 62 63 64 65 61 51 44 43 45 46 45 48 57 61 56 54 56 56 57 57 58 59 60 60 61 65 68 65 61 62 65 67 72 75 74 73 73 70 70 71 71 69 65 63 63 63 62 61 62 64 65 65 65 65 65 66 64 62 61 61 60 61 61 60 60 60 61 61 63 65 67 69 70 72 73 73 73 73 72 70
61 61 60 61 62 60 60 60 60 59 53 43 39 41 42 41 42 49 57 54 45 44 48 48 49 50 50 52 54 57 61 66 69 66 64 64 65 66 71 74 74 75 75 73 72 72 72 71 67 64 63 64 64 64 65 66 66 64 63 62 62 62 61 61 63 63 63 63 63 62 61 62 62 62 63 65 68 69 71 72 73 74 73 72 71 69
61 61 60 60 58 55 54 54 55 55 49 41 39 41 41 41 45 52 53 46 39 42 45 45 47 48 46 48 51 54 58 62 65 67 67 68 69 69 70 71 72 73 75 77 76 75 74 74 70 66 64 65 67 68 69 69 68 66 64 63 62 59 58 60 63 64 64 64 63 62 63 64 65 65 66 67 69 70 71 71 71 70 70 70 70 69
55 54 54 54 53 49 47 47 49 50 44 40 41 44 44 46 48 48 45 42 42 44 45 47 49 47 46 47 49 51 55 58 61 63 65 67 69 69 69 70 70 72 74 77 79 79 78 77 75 72 70 68 69 70 71 71 70 67 65 64 63 60 60 63 64 64 63 64 63 62 62 64 66 68 69 69 69 68 68 67 66 66 66 66 66 66
47 48 50 50 49 47 47 45 44 41 35 34 39 44 47 49 47 42 42 44 42 41 43 47 48 47 47 48 48 48 50 53 55 57 58 61 64 66 68 69 70 72 74 77 79 79 78 78 78 77 75 73 72 71 71 72 72 69 66 63 60 60 62 64 64 64 64 64 64 64 63 63 66 69 70 69 67 66 65 63 62 61 62 62 62 62
44 46 48 47 46 47 49 47 41 33 27 28 33 37 41 46 46 45 45 44 41 41 43 45 45 45 47 47 46 45 44 45 48 50 51 52 55 58 63 65 67 70 72 74 75 75 73 74 75 76 75 74 74 73 72 72 72 71 67 62 58 60 63 63 63 63 64 64 65 64 63 63 64 66 67 66 63 62 60 59 58 57 58 59 60 60
43 45 46 46 45 46 47 46 41 36 32 32 34 35 37 39 42 44 45 43 42 44 46 46 45 45 45 45 45 44 44 44 45 46 47 48 49 52 57 61 64 67 68 68 68 67 66 66 68 71 71 70 71 71 71 71 71 71 67 62 60 62 63 62 62 63 63 65 65 65 63 62 62 62 62 60 58 57 55 54 53 54 55 56 57 58
42 44 46 45 45 44 44 43 41 38 37 37 37 37 36 35 34 36 39 42 44 44 43 44 45 45 45 46 46 46 47 47 45 46 46 45 45 48 53 57 62 65 67 67 66 64 62 60 61 64 66 66 66 68 70 70 70 69 66 61 60 62 62 62 62 63 63 65 66 65 64 62 62 61 59 57 55 54 53 52 53 53 54 55 56 56
43 44 45 45 43 41 40 38 37 36 35 35 35 35 34 33 33 32 34 39 44 44 41 40 40 41 42 44 45 47 49 50 50 49 48 47 46 47 49 53 57 61 65 69 70 68 63 59 57 59 61 62 62 63 66 67 68 68 65 62 60 61 62 62 63 63 64 66 66 66 65 64 63 62 59 56 54 53 53 53 54 55 56 56 56 56
43 43 43 42 40 37 33 32 32 32 32 33 34 33 32 33 34 34 34 36 42 46 47 45 44 43 43 45 46 47 48 50 52 52 51 50 50 50 50 52 53 56 60 65 69 70 67 63 59 57 57 58 59 60 61 63 65 66 65 63 62 61 62 63 63 64 66 67 68 67 67 66 64 61 58 56 54 53 54 54 55 56 57 57 57 57
41 40 39 38 36 33 31 30 31 31 31 31 32 33 33 34 35 35 35 36 39 44 47 48 48 47 47 47 48 48 48 49 51 52 52 51 51 52 53 54 54 54 56 58 61 63 64 64 63 59 56 56 57 58 58 58 59 61 63 64 63 63 62 63 64 66 67 68 69 69 69 67 63 60 58 56 55 54 54 54 55 56 56 57 57 57
40 39 38 38 36 33 31 31 31 31 30 30 32 34 36 36 36 35 35 37 40 43 45 45 45 45 44 45 46 47 48 49 50 51 51 51 51 51 53 55 56 56 56 57 58 58 58 60 62 62 59 57 56 57 57 55 54 55 58 60 62 63 63 63 64 66 67 68 69 70 69 67 63 60 59 58 57 55 54 53 54 55 55 55 56 56
40 40 40 40 37 35 34 34 33 33 32 33 35 37 37 36 35 34 34 36 39 41 43 44 43 43 42 42 43 45 47 48 49 50 50 50 50 51 52 53 56 57 57 57 57 57 56 57 58 60 61 60 58 57 56 55 54 53 54 56 58 59 61 63 64 65 66 67 67 68 68 67 64 62 61 59 58 56 54 53 54 55 54 54 55 57
Wind_Direction
224 226 227 229 230 231 231 231 232 234 235 236 236 237 240 242 242 243 243 243 244 246 248 250 251 249 244 242 246 248 252 253 252 251 250 249 248 244 236 229 226 222 222 231 238 243 249 253 257 258 258 259 262 265 265 265 266 267 270 274 274 273 272 272 271 272 273 273 274 274 275 275 277 280 282 279 277 275 274 273 272 269 266 266 268 270
223 225 226 227 228 229 230 230 231 233 235 236 236 236 238 240 242 243 243 243 244 245 246 248 250 250 245 242 245 249 252 254 254 254 252 250 249 248 243 236 231 227 225 230 236 241 245 248 253 257 258 259 260 261 264 266 267 267 269 272 274 274 273 271 270 271 271 272 274 277 278 278 280 282 281 279 276 275 274 274 271 268 268 271 274 277
222 225 225 225 226 226 227 229 230 232 233 234 234 235 236 238 240 241 242 243 243 244 245 245 247 248 246 242 243 249 252 254 255 254 252 250 248 248 247 243 239 235 231 234 237 242 246 247 249 253 257 258 258 259 262 265 268 269 269 270 272 275 276 275 275 274 273 273 275 279 280 280 280 279 278 276 276 275 273 272 270 271 274 278 280 283
221 225 226 226 228 228 228 228 229 231 233 234 234 234 235 237 239 241 243 243 243 243 244 245 245 246 246 243 243 248 252 254 255 254 252 252 252 251 248 246 245 244 241 239 241 243 246 248 249 250 252 255 258 262 264 265 268 269 271 271 271 274 276 277 278 277 276 276 277 279 279 279 279 277 275 274 274 272 271 271 272 274 278 281 283 283
218 223 224 225 227 228 228 229 230 232 234 235 235 235 235 236 239 242 244 244 245 244 244 246 246 244 245 244 242 244 250 252 254 255 254 254 255 255 252 249 247 246 246 244 244 246 248 249 249 249 249 253 258 262 264 265 266 269 272 273 273 274 276 278 279 279 278 280 281 280 280 279 278 276 275 274 272 271 271 273 275 277 280 281 281 280
213 218 221 223 225 227 229 230 231 233 235 237 238 238 238 237 238 241 244 246 246 246 245 246 248 245 243 244 241 240 246 250 252 254 255 256 255 254 254 254 251 247 246 246 247 249 252 252 252 251 250 251 255 259 261 263 266 269 272 273 275 277 278 278 279 279 280 282 284 283 281 279 277 276 277 275 273 273 274 276 278 280 281 280 279 279
208 214 219 222 224 226 228 229 230 231 234 237 239 240 239 239 239 240 243 245 246 246 245 246 248 246 242 241 242 241 243 247 250 251 253 255 255 254 252 250 251 250 247 247 247 249 253 255 255 254 252 251 251 254 258 262 266 268 270 272 274 276 277 278 278 279 281 283 284 284 282 279 278 277 276 274 274 276 278 280 282 282 281 280 280 280
204 212 217 221 224 226 227 229 229 229 231 235 236 237 238 238 238 239 241 243 245 245 245 246 248 247 243 239 240 241 242 244 248 250 250 251 252 252 252 249 248 250 250 249 248 249 252 256 258 258 257 255 253 253 256 260 263 264 266 269 271 273 274 275 276 276 277 279 281 281 280 279 278 276 274 273 275 277 279 282 283 282 281 281 281 281
207 211 213 217 221 223 226 229 231 231 231 233 233 233 235 238 238 239 241 243 244 244 244 243 246 248 245 239 238 240 241 243 246 248 249 249 250 251 252 252 249 250 252 252 251 250 251 255 259 261 262 262 260 256 255 256 258 261 263 266 268 270 271 272 272 272 272 272 274 276 278 278 275 273 272 273 275 277 279 281 281 282 282 281 281 281
216 215 213 214 216 218 221 225 230 233 234 235 234 233 234 238 239 240 242 243 244 243 242 243 245 249 247 242 240 239 240 242 245 247 248 249 251 251 251 251 250 250 251 253 254 254 254 255 258 261 263 265 263 259 255 254 256 258 261 263 264 266 267 268 269 270 270 269 269 271 273 273 271 269 270 271 274 277 279 279 280 281 281 281 282 282
223 221 218 214 213 215 216 218 224 230 232 234 236 237 238 239 240 241 243 244 246 244 244 245 246 249 248 243 241 241 240 241 243 246 248 250 252 252 251 249 250 251 252 254 257 257 256 255 257 260 262 263 261 258 256 255 255 256 257 259 261 262 263 265 266 267 268 268 268 269 269 267 266 266 267 270 274 276 277 278 279 280 281 281 281 281
227 227 223 214 211 214 214 215 219 224 225 226 230 236 239 240 241 242 242 243 245 244 244 245 244 246 247 242 240 243 243 242 242 244 247 249 251 253 253 251 251 252 254 255 257 257 255 253 252 255 257 259 259 257 257 257 256 255 256 257 258 259 260 261 263 264 265 266 267 267 266 265 263 264 266 269 272 274 276 277 277 278 280 280 279 279
229 231 228 220 214 213 214 214 214 218 221 221 224 230 235 239 241 242 243 243 244 244 242 242 243 245 245 243 242 243 244 244 243 244 245 247 249 251 253 254 253 254 254 254 254 254 252 250 248 250 253 255 257 258 258 257 256 256 256 256 257 258 259 259 259 261 262 264 265 265 265 263 262 262 264 266 269 272 274 274 274 276 277 277 278 278
231 232 231 228 222 215 214 216 215 217 220 222 224 227 230 234 238 241 242 244 245 245 242 242 246 247 245 244 244 245 246 246 244 244 244 244 247 250 252 253 254 255 255 253 252 252 252 249 247 248 250 251 254 257 258 258 258 257 256 257 258 258 259 258 258 259 260 262 263 263 263 263 263 263 263 264 267 269 271 271 272 273 274 275 276 275
232 234 233 233 231 225 221 221 218 216 219 221 222 225 228 231 237 241 244 246 247 246 244 243 246 248 246 244 245 245 247 248 246 244 244 243 244 249 254 255 254 254 255 254 252 251 250 249 247 247 248 249 251 255 258 260 260 259 258 257 257 259 260 260 259 259 260 261 262 263 263 264 265 265 265 265 266 268 269 270 270 269 270 272 273 273
230 234 234 235 237 237 235 232 227 223 222 222 222 224 225 228 236 242 244 246 247 246 244 243 246 248 245 242 242 243 244 247 248 247 247 247 245 246 252 257 257 255 255 256 255 252 250 248 247 246 246 247 250 252 255 257 259 259 258 257 257 259 261 262 263 263 262 261 261 262 264 265 266 267 267 266 267 267 268 269 268 267 267 269 271 272
229 232 233 236 238 240 242 242 238 235 232 229 229 229 225 228 237 242 242 242 244 245 243 244 247 248 246 241 240 241 241 243 247 248 248 249 249 247 248 251 255 254 253 253 254 254 250 248 246 245 245 245 247 249 252 254 256 257 258 258 258 259 260 261 263 263 264 263 263 264 264 265 266 267 267 266 266 266 266 267 268 267 266 267 269 270
230 231 233 237 239 239 244 247 246 245 243 239 237 233 231 235 240 242 243 242 243 245 244 243 245 247 246 241 238 240 241 241 244 247 248 249 250 250 248 246 248 249 249 250 252 252 251 250 249 246 246 246 246 247 249 251 253 254 256 257 257 259 260 261 261 263 264 265 266 267 266 266 267 267 267 266 265 265 265 266 267 266 265 266 267 267
228 230 231 236 239 240 243 248 249 248 248 247 244 240 240 243 244 245 247 246 246 248 247 243 243 243 243 241 239 242 244 242 244 245 248 250 251 253 252 249 246 244 245 247 249 251 251 251 251 249 247 246 245 246 246 249 252 253 253 254 255 258 260 260 261 262 264 265 266 267 267 267 267 267 266 265 264 264 264 265 265 264 265 265 266 267
228 230 231 233 237 241 243 245 248 249 249 249 248 246 246 248 249 250 252 252 251 254 252 247 242 240 240 241 242 244 246 245 245 244 245 249 253 256 256 255 251 247 244 245 246 249 250 249 248 247 247 246 246 246 246 247 252 254 254 254 255 257 259 260 261 261 262 263 263 264 265 265 266 265 265 264 263 263 264 264 264 265 265 266 266 268
230 230 231 232 236 240 242 243 246 250 251 250 251 252 252 252 253 255 256 257 257 257 257 255 249 239 233 238 242 243 244 244 244 244 243 246 252 256 259 260 259 253 248 246 246 246 248 247 246 246 246 246 245 246 247 248 253 256 257 256 255 256 259 260 261 261 261 261 261 261 262 263 263 262 262 263 264 264 265 265 266 266 266 266 267 268
232 232 232 233 235 238 242 243 246 250 253 252 251 252 254 256 256 257 258 258 260 261 261 261 257 243 223 225 235 237 241 242 242 244 242 243 248 254 259 262 263 260 251 247 246 246 245 246 246 246 245 245 245 247 249 251 256 260 260 259 258 257 258 259 260 260 260 260 260 260 261 261 261 261 261 262 263 264 265 266 266 266 265 266 267 267
236 235 234 235 236 237 240 243 245 248 252 255 254 252 253 254 255 256 258 259 260 261 260 261 261 247 222 222 233 229 235 242 244 245 243 241 244 252 260 262 262 260 249 242 244 245 245 245 245 246 246 245 247 250 253 255 260 262 260 259 259 258 257 257 258 259 259 259 259 259 260 260 260 261 261 261 262 263 264 265 265 265 265 266 267 268
238 238 237 238 238 238 239 242 244 245 246 249 252 252 253 254 255 257 259 260 260 259 258 259 261 253 231 227 236 231 236 248 251 252 252 247 245 252 260 260 259 257 249 241 241 243 245 246 247 248 248 247 249 252 255 258 260 262 260 256 255 255 256 256 256 257 257 258 258 258 258 259 260 260 260 261 261 262 262 263 263 264 265 267 268 269
240 241 240 239 239 239 239 239 241 242 242 244 246 249 251 253 254 253 254 256 257 260 260 258 262 258 242 235 238 237 241 249 251 252 253 253 253 256 259 257 255 255 254 251 247 243 244 246 248 250 250 250 251 253 256 259 259 260 258 254 252 251 252 253 254 255 255 255 256 257 257 258 259 259 260 260 260 261 261 262 263 265 267 268 269 269
240 241 240 241 241 240 240 240 240 243 246 248 249 249 251 252 253 254 255 255 255 258 260 259 263 263 250 240 236 237 244 248 249 249 250 253 258 259 260 257 253 251 252 253 252 249 245 245 247 250 252 252 253 253 255 257 257 255 254 252 251 250 250 251 252 254 254 254 255 256 257 257 258 259 259 260 261 261 262 262 263 265 266 267 268 268
238 240 239 241 242 241 241 241 242 243 247 249 250 250 251 252 254 255 256 256 256 258 258 258 261 262 256 247 238 239 248 252 251 252 253 256 260 261 261 259 255 252 251 251 253 254 252 247 244 247 250 251 251 251 251 251 251 251 250 250 250 250 251 251 252 254 255 255 255 256 256 257 258 258 259 260 261 261 262 263 263 265 266 266 267 267
237 239 239 240 242 241 241 240 241 242 244 246 247 247 249 251 252 252 253 255 257 258 256 256 258 258 256 252 245 244 251 255 254 255 257 258 259 261 261 262 260 256 252 251 253 255 256 252 246 243 244 246 246 247 247 247 247 248 248 249 249 249 250 251 252 253 254 255 256 256 257 257 258 259 260 260 261 261 261 262 263 264 264 265 266 267
236 237 238 240 242 241 241 240 241 242 244 244 244 245 245 247 249 250 251 253 253 254 254 254 256 255 253 253 251 248 250 254 254 256 258 259 259 260 260 261 261 256 252 250 251 254 257 257 252 246 244 244 244 244 244 245 245 246 247 248 248 248 248 249 250 251 253 254 255 256 257 258 259 259 260 261 261 262 262 262 262 263 264 265 266 266
235 237 238 240 242 242 242 242 243 244 245 245 245 245 245 246 248 250 251 251 252 254 255 254 255 255 254 256 257 253 251 253 254 254 255 257 258 258 257 258 259 256 251 248 249 251 256 259 258 253 248 246 245 245 244 244 244 244 245 245 246 247 247 248 249 250 251 253 254 255 256 257 258 259 260 260 261 261 261 261 262 263 264 265 266 266
233 236 236 238 241 241 241 243 244 245 247 247 247 247 246 247 248 249 250 252 254 257 259 260 259 259 259 258 258 256 255 256 256 255 253 253 255 256 255 255 257 256 250 248 248 250 253 256 259 258 252 248 247 246 245 245 245 244 243 244 244 245 246 248 249 250 251 252 253 254 255 256 257 258 259 259 259 260 260 260 261 261 262 264 265 266
233 234 234 237 240 240 240 242 244 245 246 246 245 245 246 248 249 251 252 253 255 257 260 261 261 262 263 262 258 255 253 255 257 257 254 250 249 251 251 253 255 255 252 249 249 250 252 253 256 257 256 252 250 248 247 245 245 245 244 244 244 245 246 248 250 251 252 252 253 254 255 256 257 258 258 258 259 259 259 259 260 260 262 263 264 265
234 234 235 238 241 241 239 240 243 244 245 244 243 245 248 251 252 253 253 253 254 255 257 258 260 262 264 263 261 258 255 255 257 257 254 249 244 243 245 248 250 251 250 250 249 249 250 251 254 256 257 255 253 251 249 246 246 246 245 246 246 247 248 249 250 252 253 254 254 255 255 256 257 258 258 258 258 259 259 259 260 261 262 263 264 265
236 237 238 240 242 243 241 241 242 243 243 244 246 248 251 252 252 253 253 253 253 255 256 258 260 261 263 263 264 263 260 256 254 254 253 250 246 243 242 243 244 245 247 249 251 250 248 249 251 254 256 255 253 251 249 248 248 248 247 248 249 249 249 250 251 252 253 254 254 255 255 256 256 257 258 259 259 260 260 260 261 262 263 264 265 267
237 239 241 242 245 246 245 243 244 244 246 249 252 252 252 252 252 253 253 254 254 256 258 259 260 260 261 261 261 262 261 258 255 253 252 251 250 248 245 244 245 247 249 249 250 250 249 247 248 250 253 253 250 247 248 250 252 252 251 251 252 251 251 251 251 252 253 253 254 254 255 255 255 255 256 257 258 259 260 260 261 262 263 265 266 267
240 242 243 243 245 247 246 245 247 250 253 254 253 252 253 255 257 258 259 258 258 259 259 260 260 260 260 260 260 260 262 262 258 254 253 253 253 251 249 248 249 251 253 252 250 249 248 247 245 245 247 250 250 248 248 252 255 256 256 254 253 253 252 252 252 252 253 254 254 254 254 253 253 253 254 255 256 257 258 259 260 261 262 264 265 267
240 241 242 244 245 247 249 250 252 256 256 253 253 255 258 260 261 261 261 259 257 257 258 260 262 262 262 262 261 261 261 261 257 254 253 253 251 249 249 250 251 252 253 253 252 251 249 248 247 247 247 248 251 252 253 254 255 256 256 256 255 254 253 253 253 253 254 255 255 254 254 253 252 252 253 254 254 255 256 257 258 259 260 262 263 265
240 241 243 246 247 249 253 256 257 259 258 256 258 260 261 261 259 259 259 257 254 255 258 260 262 263 263 262 261 259 259 257 255 254 253 252 248 246 247 249 251 251 252 253 254 254 252 250 249 252 253 252 253 256 256 255 254 255 256 258 258 257 255 255 254 254 254 255 256 255 254 253 253 252 253 254 254 255 256 257 257 258 259 260 261 263
240 241 244 249 252 253 256 257 258 259 260 260 258 255 253 255 257 257 257 256 255 257 260 261 262 262 261 260 259 257 255 254 255 256 253 250 246 244 245 246 247 249 251 253 254 254 253 252 250 253 256 257 257 258 259 257 256 257 259 260 260 260 260 260 258 257 257 257 257 256 255 255 255 254 254 254 255 255 256 257 257 258 258 260 261 263
245 245 247 250 253 255 256 258 258 258 259 259 255 249 247 250 255 257 258 260 261 258 256 257 259 259 258 257 256 254 254 255 257 255 251 248 248 247 246 246 246 248 250 252 253 253 253 252 251 252 256 258 259 259 260 260 260 260 262 262 261 262 264 264 262 260 260 260 259 259 259 258 258 258 257 256 256 256 256 257 257 258 259 261 263 265
251 251 251 250 250 251 253 256 258 258 258 256 251 248 247 250 253 255 258 264 263 255 250 252 256 257 257 257 256 256 256 257 256 254 252 251 251 250 250 248 247 247 248 249 251 251 251 251 252 253 256 258 259 259 261 261 261 262 263 263 263 264 265 263 261 261 262 262 262 262 262 262 262 261 259 258 257 257 257 258 259 261 262 263 265 266
251 250 247 244 244 247 250 253 256 258 257 255 253 253 252 252 253 255 259 262 260 255 252 252 253 255 256 256 257 257 257 257 257 256 253 252 251 249 249 248 246 245 246 247 249 251 251 251 252 254 257 258 258 258 260 261 262 262 263 263 264 266 265 263 263 264 265 265 264 264 263 263 263 263 261 260 260 261 261 261 262 264 265 266 267 268
247 245 242 241 243 245 247 250 255 257 256 254 256 258 256 255 257 258 259 258 256 256 257 256 255 256 257 257 258 258 260 261 261 258 255 252 250 248 247 247 246 245 245 246 249 252 253 253 253 255 257 258 258 257 258 259 260 261 261 262 263 263 261 261 262 264 265 266 267 266 265 264 263 263 263 263 264 266 266 267 267 267 268 268 269 269
244 242 241 245 248 247 247 250 255 258 255 253 257 261 259 258 258 258 257 255 254 255 258 260 259 258 257 257 257 258 259 260 260 258 256 254 252 249 248 247 247 246 246 247 249 252 255 255 255 255 255 256 256 257 257 258 258 258 260 263 263 259 258 259 261 262 264 266 266 266 266 264 262 262 263 265 267 269 270 271 271 271 270 270 270 271
245 244 246 251 255 254 253 255 255 255 256 258 263 265 262 259 259 258 257 256 255 255 257 260 260 259 258 257 256 255 255 257 258 258 257 256 255 252 250 249 248 248 248 249 250 252 254 255 255 255 255 254 255 256 256 256 257 256 257 260 261 259 258 260 261 262 263 264 265 265 264 263 262 262 263 266 268 270 271 272 272 272 272 271 271 272
245 246 249 254 258 259 258 257 254 254 259 264 266 265 261 259 258 256 253 251 252 254 257 258 258 257 256 255 254 250 249 251 255 257 258 258 256 254 252 251 250 250 250 251 252 253 253 254 254 254 254 254 254 255 255 255 255 254 254 257 259 260 260 261 261 261 262 263 264 264 264 263 262 262 262 264 267 269 270 271 270 270 269 269 270 270
247 249 252 256 259 260 258 256 254 257 261 264 264 262 259 255 251 248 246 246 248 250 249 248 248 248 249 251 251 249 248 250 253 256 258 259 258 256 255 254 254 254 253 254 254 254 254 255 255 254 253 253 254 255 255 254 254 253 252 254 257 260 261 261 261 261 261 261 261 262 263 263 262 261 262 265 267 268 268 267 267 267 267 267 268 270
251 252 254 256 258 257 255 253 254 256 257 257 257 256 252 246 243 241 241 241 244 246 245 245 247 251 255 256 256 255 255 256 257 259 261 262 262 261 260 259 259 259 257 256 256 256 255 256 257 256 253 252 253 255 255 254 254 253 251 252 255 257 259 260 260 259 259 259 259 260 261 262 262 262 263 265 266 266 264 264 264 265 266 267 268 270
250 251 253 254 254 253 253 252 253 253 251 250 248 246 243 241 240 240 240 239 241 244 246 248 251 254 256 258 259 259 259 259 260 262 262 264 265 265 265 264 264 264 263 262 261 260 260 259 258 257 255 254 254 255 255 254 255 255 253 252 253 255 256 257 257 257 258 258 258 259 260 262 262 262 262 263 264 262 261 262 263 264 265 267 268 270
250 251 253 254 254 254 254 253 250 247 243 242 241 241 241 241 241 240 239 239 240 243 246 249 252 254 255 256 258 260 260 261 262 263 264 265 266 265 265 265 266 266 267 268 268 267 266 264 261 259 258 258 257 256 255 255 257 258 257 255 254 254 254 255 255 255 256 257 257 258 260 261 262 261 261 262 261 260 260 261 262 263 264 265 267 268
254 255 255 255 255 254 253 250 245 241 238 236 237 239 241 243 243 241 239 239 241 242 244 246 250 253 255 256 257 258 259 260 262 264 265 266 266 266 266 266 267 268 268 269 271 271 271 269 266 263 261 260 261 260 258 256 256 258 259 258 257 255 255 256 255 255 255 255 256 257 258 260 261 261 260 260 259 259 259 260 260 261 262 263 264 265
Height
5759 5762 5766 5773 5780 5784 5789 5792 5793 5795 5797 5799 5803 5807 5808 5811 5815 5819 5822 5823 5825 5825 5826 5828 5828 5833 5842 5845 5844 5844 5843 5845 5849 5853 5856 5858 5859 5860 5862 5863 5864 5864 5864 5863 5865 5867 5867 5868 5868 5868 5869 5869 5870 5870 5870 5870 5871 5870 5870 5871 5871 5871 5872 5873 5872 5872 5872 5872 5872 5872 5872 5871 5871 5871 5871 5871 5870 5870 5869 5869 5869 5869 5868 5868 5868 5868
5753 5756 5763 5771 5775 5778 5782 5784 5787 5790 5791 5794 5799 5802 5804 5807 5810 5814 5817 5818 5820 5820 5821 5823 5823 5826 5835 5840 5840 5840 5840 5842 5846 5850 5853 5855 5855 5856 5859 5861 5862 5861 5861 5861 5862 5863 5864 5865 5865 5866 5867 5867 5867 5867 5867 5867 5868 5868 5869 5869 5868 5867 5869 5870 5870 5870 5870 5870 5869 5870 5870 5870 5870 5869 5869 5868 5868 5867 5867 5867 5867 5866 5866 5866 5866 5866
5746 5752 5761 5766 5768 5771 5774 5777 5781 5783 5784 5787 5792 5796 5799 5802 5805 5808 5810 5813 5814 5814 5815 5817 5817 5820 5828 5835 5837 5836 5837 5840 5843 5847 5849 5850 5851 5854 5857 5858 5858 5859 5859 5859 5859 5859 5860 5861 5862 5863 5864 5864 5864 5864 5865 5865 5865 5865 5866 5866 5866 5865 5866 5867 5867 5868 5868 5867 5867 5868 5868 5868 5868 5867 5867 5866 5866 5865 5864 5864 5864 5863 5863 5864 5864 5863
5744 5752 5760 5762 5763 5765 5768 5772 5774 5776 5778 5781 5786 5791 5794 5798 5801 5803 5805 5806 5807 5808 5810 5811 5811 5814 5822 5830 5835 5835 5835 5837 5840 5843 5845 5846 5848 5851 5854 5855 5856 5857 5858 5858 5857 5856 5856 5857 5858 5860 5861 5861 5862 5862 5863 5863 5862 5862 5863 5864 5864 5864 5864 5864 5864 5865 5865 5865 5865 5865 5865 5865 5865 5865 5865 5864 5863 5863 5862 5861 5861 5861 5862 5862 5861 5861
5743 5750 5753 5755 5758 5760 5763 5767 5769 5771 5774 5777 5781 5786 5791 5795 5797 5798 5799 5799 5800 5803 5805 5805 5805 5810 5818 5825 5832 5834 5832 5833 5836 5838 5841 5844 5845 5848 5849 5851 5854 5855 5855 5855 5854 5853 5852 5853 5855 5856 5857 5859 5860 5860 5860 5860 5859 5860 5860 5861 5861 5862 5862 5862 5862 5862 5862 5862 5862 5862 5862 5862 5862 5862 5862 5862 5861 5859 5859 5859 5859 5859 5859 5859 5859 5858
5739 5744 5746 5749 5752 5755 5758 5761 5765 5769 5772 5773 5778 5783 5787 5791 5793 5793 5792 5792 5794 5797 5800 5801 5799 5805 5814 5820 5826 5830 5829 5830 5833 5834 5837 5840 5842 5844 5846 5848 5850 5851 5852 5852 5852 5850 5849 5850 5851 5853 5855 5856 5857 5858 5857 5857 5857 5858 5858 5857 5858 5859 5860 5860 5860 5859 5859 5860 5859 5859 5860 5860 5859 5859 5859 5859 5857 5856 5856 5856 5857 5857 5857 5857 5856 5856
5734 5738 5741 5744 5747 5750 5753 5755 5760 5765 5767 5769 5775 5780 5782 5785 5787 5786 5785 5785 5786 5791 5795 5796 5795 5799 5809 5816 5821 5825 5826 5827 5828 5830 5834 5835 5836 5839 5842 5844 5845 5845 5847 5848 5848 5847 5846 5847 5848 5849 5851 5852 5854 5854 5854 5854 5855 5856 5855 5854 5855 5856 5857 5857 5857 5857 5857 5857 5857 5856 5857 5856 5856 5857 5856 5855 5854 5854 5854 5854 5854 5854 5853 5853 5853 5853
5732 5734 5737 5740 5743 5745 5746 5750 5756 5761 5762 5765 5771 5775 5776 5778 5778 5778 5778 5778 5781 5786 5788 5791 5794 5794 5800 5812 5818 5820 5823 5824 5825 5827 5830 5831 5832 5834 5836 5839 5841 5841 5842 5843 5844 5844 5843 5843 5844 5846 5847 5848 5850 5850 5850 5851 5852 5852 5852 5852 5852 5852 5853 5854 5854 5854 5854 5854 5854 5853 5853 5854 5854 5854 5853 5852 5851 5851 5851 5851 5851 5850 5850 5850 5849 5849
5728 5729 5733 5736 5737 5739 5743 5747 5752 5755 5757 5760 5766 5768 5770 5771 5771 5771 5772 5772 5776 5779 5780 5788 5792 5789 5793 5807 5814 5815 5818 5821 5822 5823 5825 5826 5828 5830 5832 5835 5836 5837 5838 5838 5840 5841 5841 5841 5842 5843 5844 5845 5846 5847 5847 5847 5847 5848 5848 5848 5848 5849 5849 5850 5850 5850 5851 5850 5850 5850 5850 5851 5851 5850 5849 5848 5848 5848 5848 5848 5848 5847 5847 5846 5846 5846
5718 5722 5726 5728 5731 5737 5741 5744 5747 5751 5752 5756 5760 5762 5765 5764 5764 5766 5765 5767 5770 5769 5775 5787 5790 5786 5787 5800 5808 5810 5814 5818 5819 5820 5821 5823 5825 5827 5829 5831 5832 5833 5833 5834 5835 5837 5838 5839 5839 5840 5840 5841 5842 5842 5842 5843 5843 5844 5844 5844 5845 5845 5845 5845 5845 5846 5847 5847 5847 5847 5847 5848 5847 5847 5846 5845 5845 5845 5845 5845 5845 5845 5844 5843 5843 5843
5712 5715 5718 5723 5730 5735 5737 5737 5741 5745 5748 5752 5754 5756 5760 5758 5759 5761 5760 5763 5762 5760 5775 5787 5787 5781 5779 5789 5800 5804 5811 5816 5816 5817 5818 5820 5821 5822 5825 5826 5827 5828 5829 5830 5832 5833 5835 5836 5836 5836 5837 5838 5837 5837 5837 5838 5839 5839 5839 5839 5840 5841 5841 5841 5841 5841 5842 5842 5843 5844 5844 5844 5844 5843 5842 5842 5842 5842 5841 5842 5842 5841 5841 5841 5840 5840
5708 5710 5715 5724 5729 5730 5731 5733 5736 5740 5744 5747 5749 5752 5754 5753 5755 5755 5754 5757 5752 5754 5775 5784 5777 5771 5768 5781 5797 5800 5806 5812 5813 5814 5816 5817 5817 5817 5819 5821 5823 5824 5825 5827 5828 5829 5830 5831 5832 5832 5833 5833 5833 5833 5833 5834 5834 5834 5835 5835 5835 5836 5836 5836 5836 5836 5837 5838 5839 5840 5840 5841 5840 5839 5839 5839 5839 5838 5838 5838 5838 5838 5838 5838 5837 5837
5705 5708 5714 5720 5722 5725 5728 5730 5733 5735 5739 5743 5745 5748 5749 5748 5749 5748 5748 5749 5745 5753 5772 5774 5765 5759 5761 5778 5793 5797 5801 5806 5808 5811 5812 5813 5813 5813 5813 5815 5817 5819 5821 5823 5824 5825 5826 5826 5827 5827 5828 5829 5829 5829 5829 5829 5830 5830 5830 5830 5831 5832 5831 5831 5831 5832 5832 5833 5834 5835 5835 5836 5836 5836 5836 5836 5836 5835 5835 5835 5834 5834 5834 5834 5834 5834
5700 5703 5707 5711 5717 5723 5725 5727 5730 5733 5736 5739 5741 5744 5743 5742 5742 5741 5742 5743 5744 5753 5765 5764 5755 5749 5758 5778 5791 5794 5796 5798 5802 5805 5806 5808 5809 5808 5808 5809 5812 5814 5815 5817 5818 5820 5821 5821 5822 5823 5824 5825 5825 5825 5825 5825 5826 5826 5826 5826 5827 5827 5826 5826 5827 5827 5828 5828 5829 5829 5829 5830 5830 5831 5832 5832 5832 5832 5831 5831 5830 5830 5830 5830 5830 5830
5694 5696 5703 5710 5714 5718 5722 5726 5728 5730 5732 5733 5737 5737 5736 5737 5737 5738 5740 5740 5743 5751 5756 5754 5746 5744 5760 5781 5788 5789 5790 5790 5794 5798 5799 5803 5805 5804 5804 5805 5807 5809 5810 5811 5812 5814 5815 5816 5817 5818 5819 5820 5820 5821 5821 5821 5822 5822 5822 5822 5822 5822 5822 5822 5822 5823 5824 5824 5824 5824 5824 5825 5825 5826 5826 5827 5828 5828 5827 5827 5826 5826 5825 5825 5826 5825
5690 5691 5702 5709 5708 5710 5715 5719 5721 5723 5725 5727 5729 5728 5729 5735 5736 5736 5737 5738 5740 5744 5745 5743 5739 5743 5761 5775 5778 5782 5784 5784 5787 5792 5795 5798 5800 5801 5800 5800 5802 5803 5804 5805 5806 5808 5810 5810 5812 5813 5814 5815 5815 5816 5816 5817 5817 5817 5817 5817 5818 5818 5818 5818 5818 5819 5819 5820 5820 5820 5820 5820 5820 5820 5821 5822 5823 5823 5823 5822 5822 5822 5821 5821 5821 5820
5689 5693 5702 5703 5702 5706 5708 5708 5712 5715 5717 5721 5721 5722 5729 5734 5731 5730 5732 5733 5734 5734 5735 5738 5738 5745 5757 5764 5770 5776 5779 5781 5782 5784 5788 5791 5793 5795 5796 5796 5796 5797 5798 5799 5800 5802 5803 5805 5806 5807 5808 5809 5810 5811 5812 5812 5812 5813 5813 5813 5813 5814 5814 5814 5814 5814 5814 5815 5815 5815 5815 5815 5815 5815 5816 5817 5817 5817 5817 5817 5817 5818 5817 5817 5816 5815
5688 5693 5697 5696 5698 5703 5700 5699 5703 5706 5709 5712 5715 5720 5727 5726 5723 5725 5725 5726 5728 5727 5730 5735 5737 5743 5749 5756 5766 5770 5773 5777 5777 5777 5781 5784 5786 5788 5790 5791 5791 5791 5792 5793 5794 5796 5797 5799 5800 5802 5803 5804 5805 5806 5806 5807 5807 5808 5808 5808 5809 5809 5809 5810 5810 5810 5810 5810 5811 5811 5811 5811 5810 5811 5811 5811 5812 5811 5811 5812 5813 5813 5812 5812 5811 5810
5684 5687 5690 5691 5693 5695 5693 5693 5696 5700 5702 5704 5710 5717 5718 5716 5718 5721 5719 5721 5724 5722 5725 5731 5734 5737 5742 5752 5763 5766 5769 5773 5772 5772 5775 5777 5779 5779 5781 5783 5785 5786 5787 5787 5789 5790 5792 5794 5795 5797 5798 5798 5799 5800 5801 5801 5802 5803 5803 5803 5804 5804 5805 5806 5806 5806 5806 5806 5806 5806 5806 5806 5806 5806 5806 5806 5806 5806 5806 5807 5808 5807 5807 5807 5806 5805
5680 5682 5684 5687 5688 5686 5687 5688 5690 5695 5698 5699 5704 5708 5710 5712 5714 5714 5714 5718 5720 5718 5721 5726 5727 5730 5740 5752 5759 5762 5766 5766 5766 5768 5770 5771 5773 5773 5773 5776 5778 5781 5782 5783 5784 5785 5787 5789 5790 5790 5792 5793 5794 5795 5795 5796 5797 5798 5798 5799 5800 5800 5800 5801 5801 5801 5801 5801 5802 5801 5801 5801 5801 5802 5802 5801 5801 5801 5802 5802 5802 5802 5802 5801 5801 5800
5672 5675 5678 5682 5682 5680 5682 5685 5689 5693 5693 5695 5699 5701 5704 5708 5708 5708 5710 5711 5713 5714 5715 5718 5720 5727 5743 5752 5753 5757 5760 5759 5761 5763 5765 5767 5769 5768 5768 5769 5771 5775 5778 5778 5779 5779 5781 5782 5783 5784 5786 5788 5789 5789 5790 5790 5792 5793 5794 5794 5795 5795 5796 5796 5796 5796 5796 5796 5796 5797 5797 5797 5797 5797 5797 5797 5797 5797 5797 5797 5797 5797 5796 5796 5796 5795
5666 5670 5674 5676 5675 5676 5680 5684 5687 5687 5686 5689 5693 5695 5699 5701 5700 5701 5702 5704 5708 5708 5710 5712 5711 5723 5743 5748 5747 5753 5755 5754 5757 5758 5760 5762 5763 5764 5765 5764 5764 5767 5770 5771 5772 5772 5774 5775 5776 5778 5780 5781 5782 5783 5783 5785 5786 5788 5789 5790 5790 5791 5791 5791 5791 5791 5791 5791 5791 5792 5792 5792 5792 5792 5792 5792 5792 5792 5792 5792 5792 5791 5791 5790 5790 5790
5660 5662 5666 5666 5668 5673 5677 5678 5679 5680 5682 5684 5686 5690 5693 5693 5693 5695 5696 5701 5703 5701 5704 5705 5701 5716 5741 5745 5743 5749 5750 5751 5753 5752 5754 5757 5757 5759 5761 5760 5759 5759 5761 5762 5763 5765 5766 5768 5770 5772 5773 5774 5775 5776 5777 5779 5781 5782 5783 5784 5785 5785 5785 5785 5785 5785 5786 5786 5786 5786 5786 5786 5787 5787 5787 5787 5787 5787 5787 5786 5786 5785 5785 5785 5785 5785
5652 5653 5657 5660 5663 5667 5670 5671 5672 5674 5678 5679 5680 5685 5687 5686 5689 5691 5693 5697 5696 5692 5698 5698 5693 5712 5738 5742 5742 5745 5746 5748 5749 5748 5749 5751 5752 5754 5756 5756 5755 5753 5754 5755 5756 5758 5760 5761 5764 5765 5766 5767 5768 5770 5771 5773 5775 5776 5777 5777 5778 5778 5778 5779 5780 5780 5780 5781 5780 5780 5781 5781 5781 5781 5782 5782 5781 5782 5781 5781 5781 5780 5780 5780 5780 5780
5647 5648 5652 5655 5656 5657 5659 5661 5664 5668 5672 5675 5679 5683 5683 5684 5687 5687 5689 5692 5687 5685 5693 5691 5689 5708 5732 5737 5737 5740 5741 5743 5744 5743 5744 5746 5748 5749 5749 5751 5750 5749 5750 5750 5750 5752 5754 5756 5757 5757 5758 5760 5761 5763 5765 5766 5767 5768 5769 5770 5770 5771 5772 5772 5773 5774 5774 5775 5775 5775 5775 5775 5776 5776 5776 5776 5776 5776 5776 5776 5776 5776 5776 5776 5775 5775
5639 5640 5644 5646 5646 5648 5652 5657 5665 5671 5673 5672 5675 5678 5680 5681 5681 5681 5683 5683 5680 5683 5688 5685 5687 5704 5721 5728 5731 5733 5733 5736 5738 5737 5738 5740 5741 5742 5743 5744 5745 5745 5746 5746 5746 5747 5748 5751 5752 5751 5752 5753 5754 5756 5757 5757 5758 5759 5760 5761 5762 5764 5764 5766 5767 5767 5768 5769 5769 5770 5770 5770 5771 5771 5771 5771 5771 5771 5771 5771 5771 5771 5771 5770 5770 5770
5631 5632 5636 5638 5639 5644 5651 5659 5666 5668 5665 5663 5666 5671 5674 5675 5676 5676 5673 5672 5676 5681 5680 5680 5686 5697 5708 5719 5728 5728 5726 5728 5731 5731 5732 5733 5733 5734 5736 5738 5740 5742 5743 5743 5742 5742 5743 5745 5745 5745 5745 5745 5746 5747 5748 5748 5749 5750 5751 5753 5754 5756 5758 5759 5761 5762 5763 5764 5764 5765 5765 5765 5765 5766 5766 5766 5766 5766 5766 5766 5766 5765 5765 5764 5764 5764
5625 5626 5631 5634 5636 5642 5648 5654 5658 5656 5653 5655 5659 5663 5666 5667 5668 5667 5664 5667 5674 5673 5669 5677 5685 5687 5696 5710 5719 5722 5720 5720 5723 5724 5725 5727 5726 5727 5729 5731 5735 5738 5739 5739 5739 5738 5738 5737 5737 5738 5737 5737 5738 5738 5739 5740 5741 5742 5743 5745 5747 5749 5750 5752 5754 5755 5756 5758 5759 5759 5759 5760 5760 5761 5761 5761 5761 5761 5761 5761 5760 5759 5759 5758 5758 5758
5619 5621 5627 5630 5631 5636 5642 5645 5648 5646 5645 5648 5652 5655 5659 5659 5658 5657 5658 5663 5666 5661 5662 5674 5678 5677 5688 5701 5709 5716 5715 5712 5716 5719 5719 5720 5720 5721 5722 5724 5728 5731 5733 5734 5734 5732 5731 5729 5729 5730 5730 5730 5730 5731 5732 5732 5733 5735 5736 5738 5740 5741 5742 5744 5746 5748 5750 5751 5752 5753 5753 5754 5755 5755 5756 5756 5756 5755 5755 5754 5754 5753 5753 5752 5752 5752
5613 5616 5623 5624 5624 5629 5634 5637 5639 5638 5638 5640 5644 5647 5651 5652 5650 5650 5653 5657 5657 5653 5657 5668 5669 5669 5682 5695 5703 5711 5709 5705 5709 5713 5712 5713 5713 5714 5716 5718 5721 5723 5725 5726 5726 5724 5723 5721 5722 5724 5723 5723 5723 5723 5724 5725 5725 5727 5728 5730 5732 5733 5735 5737 5740 5742 5744 5745 5746 5746 5747 5748 5748 5749 5749 5749 5749 5749 5748 5748 5747 5747 5746 5746 5745 5745
5608 5612 5618 5618 5616 5620 5625 5630 5632 5631 5631 5633 5636 5638 5640 5642 5642 5644 5647 5652 5653 5650 5653 5660 5659 5660 5674 5688 5697 5703 5700 5697 5702 5706 5706 5707 5706 5707 5709 5710 5712 5714 5715 5717 5717 5716 5715 5714 5714 5716 5716 5716 5716 5716 5717 5718 5718 5719 5721 5722 5723 5725 5728 5731 5734 5736 5737 5738 5739 5740 5740 5741 5741 5742 5742 5742 5742 5742 5741 5741 5740 5740 5739 5739 5738 5738
5604 5608 5612 5611 5608 5612 5621 5625 5625 5625 5624 5621 5623 5628 5631 5634 5637 5641 5646 5649 5649 5649 5650 5649 5645 5650 5667 5679 5684 5690 5691 5690 5695 5698 5697 5698 5699 5699 5701 5703 5705 5706 5706 5707 5707 5706 5706 5706 5706 5707 5708 5709 5710 5710 5711 5710 5710 5711 5714 5715 5716 5719 5722 5725 5727 5729 5731 5732 5732 5733 5733 5734 5734 5735 5735 5735 5735 5734 5734 5734 5733 5733 5732 5732 5731 5731
5600 5603 5606 5605 5601 5607 5617 5619 5619 5618 5610 5604 5613 5626 5630 5632 5636 5638 5639 5641 5643 5642 5640 5638 5639 5648 5661 5666 5669 5677 5684 5688 5691 5689 5685 5688 5691 5691 5692 5696 5697 5697 5694 5694 5695 5696 5697 5699 5699 5700 5700 5701 5702 5702 5702 5701 5702 5705 5707 5708 5710 5713 5716 5719 5720 5722 5724 5725 5725 5725 5726 5726 5727 5727 5727 5727 5727 5727 5727 5727 5726 5726 5725 5725 5724 5724
5596 5598 5601 5599 5596 5601 5611 5615 5611 5601 5591 5597 5617 5629 5627 5627 5628 5627 5627 5631 5633 5633 5631 5632 5638 5646 5653 5656 5660 5666 5673 5680 5684 5678 5674 5678 5682 5683 5685 5687 5686 5684 5682 5682 5683 5686 5689 5691 5692 5692 5692 5693 5693 5693 5692 5692 5695 5699 5700 5701 5704 5708 5710 5712 5714 5715 5716 5717 5717 5718 5718 5718 5719 5719 5719 5719 5719 5719 5719 5719 5718 5718 5718 5717 5717 5716
5592 5594 5595 5594 5592 5596 5605 5607 5594 5583 5589 5606 5621 5623 5619 5618 5618 5617 5618 5622 5626 5627 5627 5629 5633 5639 5643 5646 5651 5654 5659 5668 5673 5668 5665 5670 5673 5675 5677 5676 5675 5673 5671 5671 5673 5677 5681 5683 5683 5683 5684 5684 5683 5683 5683 5684 5688 5691 5693 5695 5698 5700 5703 5705 5706 5708 5708 5709 5709 5710 5710 5711 5711 5711 5711 5711 5711 5711 5711 5710 5710 5710 5710 5709 5709 5708
5588 5589 5588 5589 5588 5589 5595 5592 5581 5582 5597 5608 5609 5610 5612 5612 5613 5613 5611 5615 5622 5623 5621 5621 5623 5628 5632 5636 5643 5648 5652 5658 5659 5656 5659 5664 5665 5665 5664 5664 5663 5661 5659 5660 5664 5667 5672 5674 5673 5674 5675 5674 5674 5674 5677 5679 5681 5683 5685 5687 5690 5693 5695 5696 5698 5699 5700 5700 5701 5701 5701 5702 5702 5702 5702 5702 5703 5702 5702 5702 5701 5701 5701 5701 5701 5700
5582 5582 5582 5582 5582 5583 5584 5582 5580 5583 5589 5592 5597 5607 5611 5608 5609 5607 5600 5604 5613 5614 5611 5612 5616 5621 5626 5631 5637 5642 5645 5644 5638 5642 5655 5658 5652 5651 5651 5650 5651 5649 5648 5653 5656 5659 5663 5665 5665 5665 5665 5666 5667 5669 5672 5673 5672 5673 5675 5678 5682 5684 5686 5688 5690 5690 5690 5691 5692 5692 5692 5693 5693 5693 5693 5693 5693 5693 5693 5693 5693 5693 5693 5693 5692 5691
5575 5575 5576 5575 5576 5579 5578 5575 5576 5574 5574 5584 5598 5607 5606 5599 5600 5599 5589 5588 5601 5607 5607 5608 5611 5615 5619 5622 5626 5632 5634 5625 5620 5635 5651 5645 5636 5639 5640 5638 5640 5640 5642 5647 5650 5652 5655 5657 5657 5657 5658 5660 5662 5663 5664 5663 5661 5662 5666 5671 5674 5676 5677 5680 5681 5680 5680 5681 5681 5681 5682 5683 5683 5683 5683 5683 5684 5684 5684 5684 5684 5683 5684 5683 5683 5682
5568 5570 5572 5569 5569 5573 5572 5568 5569 5565 5568 5584 5595 5597 5593 5589 5591 5590 5578 5576 5595 5607 5605 5602 5603 5606 5609 5611 5615 5619 5616 5609 5613 5633 5641 5628 5623 5630 5629 5628 5633 5634 5636 5641 5643 5644 5646 5648 5649 5650 5652 5654 5657 5657 5655 5651 5651 5654 5659 5664 5667 5668 5671 5674 5674 5672 5672 5672 5672 5673 5674 5674 5674 5674 5674 5674 5674 5674 5674 5675 5674 5674 5674 5674 5674 5673
5562 5563 5565 5564 5563 5567 5566 5563 5563 5562 5568 5581 5586 5584 5584 5584 5585 5579 5568 5574 5595 5603 5596 5593 5594 5596 5598 5601 5603 5605 5603 5603 5611 5623 5623 5615 5616 5623 5621 5620 5626 5629 5630 5634 5635 5635 5637 5638 5640 5643 5646 5648 5649 5648 5645 5642 5643 5647 5652 5656 5658 5660 5665 5666 5664 5664 5665 5665 5665 5666 5667 5667 5666 5666 5666 5665 5665 5665 5665 5665 5665 5665 5666 5666 5666 5666
5554 5556 5557 5558 5559 5562 5561 5559 5558 5559 5567 5577 5578 5576 5577 5578 5575 5569 5568 5579 5591 5590 5586 5587 5586 5586 5590 5592 5593 5595 5597 5598 5601 5607 5610 5608 5610 5614 5613 5613 5617 5620 5622 5624 5624 5625 5627 5629 5631 5635 5639 5641 5641 5638 5636 5635 5636 5640 5645 5647 5649 5654 5657 5655 5653 5654 5655 5656 5657 5659 5660 5659 5658 5658 5657 5656 5656 5656 5657 5657 5657 5658 5658 5659 5658 5659
5548 5549 5549 5551 5554 5556 5557 5555 5554 5556 5565 5572 5570 5568 5569 5568 5566 5567 5572 5578 5580 5579 5580 5579 5578 5580 5584 5584 5585 5587 5589 5589 5591 5595 5600 5600 5601 5603 5603 5603 5606 5610 5611 5613 5614 5614 5616 5620 5624 5626 5630 5632 5630 5629 5628 5628 5629 5634 5637 5639 5643 5648 5648 5643 5643 5645 5646 5647 5650 5651 5652 5652 5651 5650 5650 5649 5649 5649 5650 5650 5651 5651 5651 5651 5651 5652
5541 5542 5543 5546 5550 5551 5551 5551 5551 5555 5563 5566 5562 5559 5560 5561 5562 5567 5570 5570 5572 5575 5574 5572 5573 5577 5577 5576 5578 5580 5581 5582 5582 5585 5588 5589 5591 5593 5593 5593 5596 5598 5600 5602 5603 5603 5606 5611 5615 5617 5619 5621 5619 5619 5620 5620 5622 5625 5627 5631 5638 5639 5635 5633 5635 5637 5637 5639 5641 5642 5643 5643 5643 5642 5642 5642 5643 5643 5644 5644 5644 5644 5644 5644 5644 5644
5535 5536 5539 5542 5545 5544 5544 5547 5550 5554 5558 5558 5555 5554 5555 5557 5559 5562 5562 5564 5568 5570 5567 5566 5568 5570 5569 5570 5571 5573 5574 5574 5574 5576 5578 5580 5582 5584 5584 5585 5586 5587 5590 5592 5593 5593 5596 5600 5604 5607 5609 5610 5609 5608 5609 5611 5614 5617 5619 5624 5628 5624 5621 5623 5626 5627 5629 5630 5631 5633 5634 5634 5634 5635 5635 5636 5636 5636 5637 5637 5637 5636 5636 5636 5637 5637
5531 5533 5535 5537 5538 5538 5540 5545 5549 5550 5551 5551 5551 5551 5552 5553 5554 5555 5557 5560 5562 5561 5559 5560 5560 5561 5563 5564 5564 5566 5568 5569 5569 5570 5571 5572 5575 5576 5576 5577 5577 5578 5580 5582 5583 5585 5587 5590 5593 5596 5598 5600 5599 5598 5599 5602 5605 5609 5613 5616 5614 5610 5611 5615 5616 5618 5620 5621 5622 5623 5624 5625 5626 5627 5627 5628 5628 5628 5628 5628 5628 5628 5628 5628 5628 5629
5527 5529 5530 5531 5532 5533 5537 5541 5543 5544 5545 5545 5545 5545 5547 5548 5549 5550 5552 5554 5553 5553 5553 5553 5552 5554 5556 5557 5557 5559 5561 5562 5563 5563 5563 5565 5568 5568 5568 5569 5569 5570 5571 5572 5574 5576 5578 5581 5584 5585 5587 5590 5589 5588 5590 5593 5596 5601 5605 5605 5602 5601 5603 5605 5607 5610 5612 5612 5613 5614 5615 5616 5618 5618 5619 5620 5620 5620 5620 5620 5620 5620 5620 5619 5620 5620
5523 5524 5525 5527 5528 5529 5533 5537 5538 5538 5539 5539 5539 5539 5541 5542 5543 5544 5545 5546 5546 5546 5546 5545 5545 5546 5547 5548 5549 5551 5552 5554 5555 5555 5556 5558 5559 5560 5561 5562 5562 5562 5563 5564 5565 5568 5570 5573 5575 5576 5578 5580 5580 5579 5581 5584 5587 5590 5593 5593 5593 5593 5595 5596 5598 5601 5603 5603 5604 5605 5606 5607 5609 5610 5611 5612 5612 5612 5612 5612 5611 5611 5611 5611 5611 5611
5518 5519 5521 5522 5523 5525 5529 5532 5532 5531 5533 5533 5533 5534 5534 5535 5535 5537 5538 5538 5539 5538 5538 5538 5539 5539 5540 5541 5541 5543 5546 5547 5546 5547 5549 5550 5551 5553 5554 5554 5555 5556 5556 5557 5558 5560 5563 5565 5566 5568 5569 5570 5571 5570 5572 5575 5577 5578 5580 5582 5583 5583 5585 5587 5590 5592 5593 5594 5595 5595 5597 5598 5599 5601 5603 5603 5604 5604 5604 5604 5603 5603 5603 5603 5603 5603
5512 5515 5517 5518 5519 5522 5525 5526 5525 5525 5527 5527 5527 5527 5527 5527 5528 5530 5531 5532 5533 5532 5531 5532 5532 5533 5533 5534 5534 5536 5540 5540 5538 5540 5542 5544 5545 5545 5545 5546 5548 5548 5549 5550 5551 5552 5554 5556 5558 5560 5561 5561 5562 5562 5563 5566 5567 5567 5569 5571 5572 5573 5576 5578 5580 5581 5583 5585 5586 5587 5588 5589 5591 5593 5594 5594 5595 5595 5596 5596 5596 5595 5596 5596 5595 5596
5508 5511 5512 5513 5515 5518 5519 5519 5518 5519 5521 5521 5520 5519 5520 5521 5523 5525 5526 5526 5526 5525 5525 5525 5525 5526 5527 5528 5528 5530 5531 5531 5530 5531 5535 5537 5537 5537 5538 5539 5540 5541 5541 5542 5543 5545 5546 5547 5549 5551 5552 5553 5553 5554 5554 5556 5557 5558 5560 5561 5562 5564 5566 5568 5570 5572 5574 5575 5577 5578 5579 5580 5582 5583 5584 5585 5586 5586 5587 5587 5587 5587 5588 5588 5588 5588
5503 5506 5507 5507 5510 5512 5512 5511 5511 5512 5514 5515 5513 5512 5514 5516 5518 5520 5520 5519 5518 5518 5518 5519 5519 5520 5521 5522 5522 5522 5523 5524 5523 5524 5528 5530 5529 5529 5530 5531 5532 5533 5534 5534 5535 5537 5538 5539 5540 5542 5543 5544 5544 5545 5546 5547 5548 5549 5550 5552 5553 5555 5556 5558 5560 5562 5564 5566 5567 5568 5569 5570 5572 5573 5575 5576 5577 5577 5578 5579 5578 5579 5580 5580 5579 5580